Waarnemingen

Advertentie
Mijn weer
Leutkirch-Herlazhofen, Duitsland (10945): temperatuur & dauwpunt: 15.01.2017 01:00:00 - 21.01.2017 01:00:00 (CET)Leutkirch-Herlazhofen, Duitsland (10945): temperatuur 5cm & temperatuur -5cm: 15.01.2017 01:00:00 - 21.01.2017 01:00:00 (CET)Leutkirch-Herlazhofen, Duitsland (10945): temperatuur -20cm & temperatuur -100cm: 15.01.2017 01:00:00 - 21.01.2017 01:00:00 (CET)Leutkirch-Herlazhofen, Duitsland (10945): windsnelheid & windstoten: 15.01.2017 01:00:00 - 21.01.2017 01:00:00 (CET)Leutkirch-Herlazhofen, Duitsland (10945): windrichting: 15.01.2017 01:00:00 - 21.01.2017 01:00:00 (CET)Leutkirch-Herlazhofen, Duitsland (10945): luchtdruk: 15.01.2017 01:00:00 - 21.01.2017 01:00:00 (CET)Leutkirch-Herlazhofen, Duitsland (10945): zicht: 15.01.2017 01:00:00 - 21.01.2017 01:00:00 (CET)Leutkirch-Herlazhofen, Duitsland (10945): Zonneschijnduur: 15.01.2017 01:00:00 - 21.01.2017 01:00:00 (CET)Leutkirch-Herlazhofen, Duitsland (10945): neerslag: 15.01.2017 01:00:00 - 21.01.2017 01:00:00 (CET)
Datum & Tijd tt [°C] td [°C] tt 5cm [°C] tt -5cm [°C] tt -20cm [°C] tt -100cm [°C] ff [km/u] ff [kn] fx [km/u] fx [kn] dd ppp [hPa] vv [km] sd [min] rr [mm]
21.01.2017 01:00:00 -16,8 -18,0 -4,1 0,0 0,6 3,6 4 2 4 2 Z 1037,5 3,9 0 0,0
21.01.2017 00:00:00 -14,5 -15,5 -4,0 0,0 0,6 3,6 2 1 5 3 ZZO 1037,0 2,0 0 0,0
20.01.2017 23:00:00 -14,1 -15,1 -3,7 0,0 0,6 3,6 5 3 5 3 Z 1036,5 0,3 0 0,0
20.01.2017 22:00:00 -14,3 -15,1 -3,6 0,0 0,6 3,6 3 1 7 4 NO 1036,7 0,1 0 0,0
20.01.2017 21:00:00 -11,2 -11,8 -3,8 0,0 0,6 3,6 3 1 6 3 ZZO 1035,6 0,1 0 0,0
20.01.2017 20:00:00 -10,6 -11,1 -3,8 0,0 0,6 3,6 5 3 10 5 ZO 1035,3 0,3 0 0,0
20.01.2017 19:00:00 -10,1 -10,8 -3,8 0,0 0,6 3,6 4 2 11 6 NNO 1035,2 0,8 0 0,0
20.01.2017 18:00:00 -10,1 -10,9 -3,3 0,0 0,6 3,6 5 3 9 5 NO 1035,0 1,3 0 0,0
20.01.2017 17:00:00 -10,3 -11,4 -2,9 0,0 0,6 3,6 4 2 6 3 N 1035,1 2,7 37 0,0
20.01.2017 16:00:00 -8,9 -11,4 -2,8 0,0 0,6 3,6 4 2 7 4 NNO 1034,5 3,5 60 0,0
20.01.2017 15:00:00 -9,3 -11,3 -2,8 0,0 0,6 3,6 5 3 10 6 NO 1034,7 3,2 25 0,0
20.01.2017 14:00:00 -9,4 -11,2 -3,1 0,0 0,6 3,6 6 3 8 5 NO 1034,9 2,4 0 0,0
20.01.2017 13:00:00 -9,5 -11,4 -3,5 0,0 0,6 3,6 3 2 6 3 WNW 1035,6 2,4 0 0,0
20.01.2017 12:00:00 -9,4 -11,1 -3,9 0,0 0,6 3,6 0 0 5 3 N 1036,1 1,4 0 0,0
20.01.2017 11:00:00 -10,4 -12,1 -4,3 0,0 0,6 3,6 2 1 6 3 NNW 1036,5 1,7 0 0,0
20.01.2017 10:00:00 -11,1 -12,4 -4,7 0,0 0,6 3,6 0 0 4 2 N 1036,5 3,3 0 0,0
20.01.2017 09:00:00 -11,7 -13,1 -5,0 0,0 0,6 3,6 3 1 5 3 ZZW 1036,5 3,2 0 0,0
20.01.2017 08:00:00 -12,4 -13,7 -5,1 0,0 0,6 3,6 2 1 6 3 Z 1036,3 3,4 0 0,0
20.01.2017 07:00:00 -14,4 -15,3 -4,9 0,0 0,6 3,6 4 2 6 3 OZO 1036,8 3,2 0 0,0
20.01.2017 06:00:00 -15,3 -16,8 -4,8 0,0 0,6 3,6 3 2 6 3 ONO 1036,8 4,6 0 0,0
20.01.2017 05:00:00 -11,9 -13,0 -5,0 0,0 0,6 3,6 4 2 16 9 O 1035,4 2,5 0 0,0
20.01.2017 04:00:00 -10,9 -11,9 -5,0 0,0 0,6 3,6 8 4 19 10 ONO 1035,5 1,9 0 0,0
20.01.2017 03:00:00 -11,3 -12,2 -4,6 0,0 0,6 3,6 10 5 15 8 NO 1035,5 2,6 0 0,0
20.01.2017 02:00:00 -16,5 -17,9 -4,1 0,0 0,6 3,6 3 1 5 3 ZZO 1037,6 2,7 0 0,0
20.01.2017 01:00:00 -14,9 -15,8 -3,6 0,0 0,6 3,6 4 2 5 3 ZZW 1037,1 2,6 0 0,0
20.01.2017 00:00:00 -12,1 -13,5 -3,1 0,0 0,6 3,6 4 2 14 8 O 1036,5 2,6 0 0,0
19.01.2017 23:00:00 -9,6 -11,1 -2,7 0,0 0,6 3,6 11 6 16 8 NO 1035,6 3,7 0 0,0
19.01.2017 22:00:00 -9,2 -10,9 -2,3 0,0 0,6 3,6 8 5 12 7 NNO 1035,9 3,6 0 0,0
19.01.2017 21:00:00 -8,6 -10,4 -2,3 0,0 0,6 3,6 7 4 13 7 NO 1035,7 3,8 0 0,0
19.01.2017 20:00:00 -7,1 -9,3 -2,3 0,0 0,6 3,6 7 4 19 11 NO 1035,1 4,3 0 0,0
19.01.2017 19:00:00 -6,7 -8,8 -2,1 0,0 0,6 3,6 10 5 20 11 ONO 1034,9 6 0 0,0
19.01.2017 18:00:00 -6,9 -8,8 -2,0 0,0 0,6 3,6 8 5 24 13 NO 1034,8 6 0 0,0
19.01.2017 17:00:00 -6,8 -9,3 -1,9 0,0 0,6 3,6 12 6 24 13 ONO 1034,4 7 0 0,0
19.01.2017 16:00:00 -6,6 -9,2 -1,9 0,0 0,6 3,6 14 8 29 15 O 1034,4 10 0 0,0
19.01.2017 15:00:00 -6,4 -9,1 -2,0 0,0 0,6 3,6 11 6 21 11 ONO 1034,2 8 0 0,0
19.01.2017 14:00:00 -6,5 -9,4 -2,0 0,0 0,6 3,6 13 7 20 11 ONO 1034,3 7 0 0,0
19.01.2017 13:00:00 -6,9 -9,7 -2,2 0,0 0,6 3,6 11 6 25 13 O 1034,8 6 0 0,0
19.01.2017 12:00:00 -7,3 -9,9 -2,3 0,0 0,6 3,6 13 7 25 14 O 1034,9 6 0 0,0
19.01.2017 11:00:00 -7,7 -10,1 -2,4 0,0 0,6 3,6 16 9 24 13 O 1035,4 6 0 0,0
19.01.2017 10:00:00 -7,7 -9,9 -2,4 0,0 0,6 3,6 17 9 31 17 ONO 1035,4 8 0 0,0
19.01.2017 09:00:00 -7,7 -9,7 -2,4 0,0 0,6 3,6 15 8 31 17 ONO 1035,1 8 0 0,0
19.01.2017 08:00:00 -7,5 -9,7 -2,4 0,0 0,6 3,6 16 9 31 17 ONO 1034,7 7 0 0,0
19.01.2017 07:00:00 -7,4 -9,5 -2,4 0,0 0,6 3,6 21 11 33 18 ONO 1034,3 8 0 0,0
19.01.2017 06:00:00 -7,2 -9,3 -2,4 0,0 0,5 3,6 13 7 27 15 ONO 1034,1 7 0 0,0
19.01.2017 05:00:00 -7,1 -9,4 -2,4 0,0 0,5 3,6 14 7 28 15 ONO 1034,3 8 0 0,0
19.01.2017 04:00:00 -7,0 -9,3 -2,4 0,0 0,5 3,6 13 7 35 19 ONO 1034,4 8 0 0,0
19.01.2017 03:00:00 -6,9 -9,3 -2,4 0,0 0,5 3,6 12 6 27 15 NO 1034,2 9 0 0,0
19.01.2017 02:00:00 -6,8 -9,5 -2,5 0,0 0,5 3,6 16 9 40 21 ONO 1033,9 9 0 0,0
19.01.2017 01:00:00 -6,6 -9,3 -2,5 0,0 0,5 3,6 23 12 45 24 ONO 1033,7 9 0 0,0
19.01.2017 00:00:00 -6,5 -9,3 -2,7 0,0 0,5 3,6 24 13 43 23 ONO 1033,9 10 0 0,0
18.01.2017 23:00:00 -6,3 -9,2 -2,8 0,0 0,5 3,6 24 13 50 27 ONO 1033,9 10 0 0,0
18.01.2017 22:00:00 -6,2 -9,3 -2,9 0,0 0,5 3,6 28 15 54 29 ONO 1033,7 11 0 0,0
18.01.2017 21:00:00 -6,2 -9,3 -2,9 0,0 0,5 3,6 29 16 46 25 ONO 1033,7 9 0 0,0
18.01.2017 20:00:00 -6,0 -9,1 -2,8 0,0 0,5 3,6 28 15 50 27 ONO 1034,1 8 0 0,0
18.01.2017 19:00:00 -6,0 -9,2 -2,7 0,0 0,5 3,6 26 14 46 25 ONO 1034,2 10 0 0,0
18.01.2017 18:00:00 -5,9 -9,1 -2,6 0,0 0,5 3,6 28 15 53 29 ONO 1033,9 11 0 0,0
18.01.2017 17:00:00 -5,7 -9,2 -2,6 0,0 0,5 3,6 26 14 51 28 ONO 1033,7 11 0 0,0
18.01.2017 16:00:00 -5,6 -9,3 -2,7 0,0 0,5 3,6 29 16 51 28 ONO 1033,7 10 0 0,0
18.01.2017 15:00:00 -5,6 -9,4 -2,6 0,0 0,5 3,6 27 15 54 29 ONO 1033,7 12 0 0,0
18.01.2017 14:00:00 -5,9 -9,7 -2,3 0,0 0,5 3,6 28 15 44 24 ONO 1033,8 12 0 0,0
18.01.2017 13:00:00 -6,0 -9,9 -2,3 0,0 0,5 3,6 23 13 45 25 ONO 1034,1 11 0 0,0
18.01.2017 12:00:00 -6,2 -10,0 -2,5 0,0 0,5 3,6 26 14 50 27 ONO 1034,3 10 0 0,0
18.01.2017 11:00:00 -6,4 -10,2 -2,8 0,0 0,5 3,6 27 15 46 25 ONO 1034,5 11 0 0,0
18.01.2017 10:00:00 -6,5 -9,8 -3,1 0,0 0,5 3,6 19 11 44 24 ONO 1034,1 4,7 0 0,0
18.01.2017 09:00:00 -6,6 -9,6 -3,3 0,0 0,5 3,6 23 12 44 24 ONO 1033,7 7 0 0,0
18.01.2017 08:00:00 -6,7 -9,5 -3,3 0,0 0,5 3,6 21 12 48 26 ONO 1033,3 9 0 0,0
18.01.2017 07:00:00 -6,7 -9,7 -3,1 0,0 0,5 3,6 31 17 52 28 ONO 1032,9 9 0 0,0
18.01.2017 06:00:00 -6,8 -9,8 -2,9 0,0 0,5 3,6 31 17 59 32 ONO 1032,6 11 0 0,0
18.01.2017 05:00:00 -6,8 -9,7 -2,5 0,0 0,5 3,6 29 15 45 25 ONO 1032,8 13 0 0,0
18.01.2017 04:00:00 -6,8 -9,5 -2,1 0,0 0,5 3,6 23 13 48 26 ONO 1032,9 8 0 0,0
18.01.2017 03:00:00 -6,8 -9,6 -1,8 0,0 0,5 3,6 32 17 55 30 ONO 1033,0 5 0 0,0
18.01.2017 02:00:00 -6,6 -9,6 -1,8 0,0 0,5 3,6 31 17 48 26 O 1032,9 11 0 0,0
18.01.2017 01:00:00 -6,6 -9,8 -1,7 0,0 0,5 3,6 27 15 51 28 ONO 1033,2 14 0 0,0
18.01.2017 00:00:00 -6,6 -9,4 -1,7 0,0 0,5 3,6 27 14 46 25 ONO 1033,2 14 0 0,0
17.01.2017 23:00:00 -6,4 -9,5 -1,6 0,0 0,5 3,6 26 14 45 24 ONO 1033,0 15 0 0,0
17.01.2017 22:00:00 -6,4 -9,3 -1,6 0,0 0,5 3,6 22 12 36 20 ONO 1032,9 15 0 0,0
17.01.2017 21:00:00 -6,5 -9,1 -1,5 0,0 0,5 3,6 21 11 45 24 NO 1032,9 11 0 0,0
17.01.2017 20:00:00 -6,6 -9,2 -1,3 0,0 0,5 3,6 24 13 37 20 NO 1032,8 14 0 0,0
17.01.2017 19:00:00 -6,7 -9,3 -1,2 0,0 0,5 3,6 22 12 37 20 ONO 1032,4 14 0 0,0
17.01.2017 18:00:00 -6,4 -9,0 -1,1 0,0 0,5 3,6 22 12 42 23 NO 1031,9 11 0 0,0
17.01.2017 17:00:00 -6,2 -9,0 -0,9 0,0 0,5 3,6 22 12 40 21 NO 1031,6 15 0 0,0
17.01.2017 16:00:00 -6,5 -8,8 -0,9 0,0 0,5 3,6 21 11 36 19 NO 1031,7 10 0 0,0
17.01.2017 15:00:00 -6,6 -8,8 -0,8 0,0 0,5 3,6 20 11 34 19 NO 1031,4 7 0 0,0
17.01.2017 14:00:00 -6,9 -9,3 -0,8 0,0 0,5 3,6 16 9 28 15 NO 1031,7 11 0 0,0
17.01.2017 13:00:00 -7,5 -10,1 -0,9 0,0 0,5 3,6 16 8 29 16 NO 1032,3 10 1 0,0
17.01.2017 12:00:00 -7,7 -10,2 -1,0 0,0 0,5 3,6 19 11 32 18 NO 1032,6 6 20 0,0
17.01.2017 11:00:00 -8,0 -10,3 -1,0 0,0 0,5 3,6 15 8 30 16 NNO 1032,9 7 0 0,0
17.01.2017 10:00:00 -8,2 -10,1 -1,1 0,0 0,5 3,6 19 10 29 15 NO 1032,5 9 0 0,0
17.01.2017 09:00:00 -7,7 -9,5 -1,1 0,0 0,5 3,6 16 9 26 14 NO 1031,9 9 0 0,0
17.01.2017 08:00:00 -7,3 -8,5 -1,1 0,0 0,5 3,6 14 8 30 16 NO 1031,3 4,9 0 0,0
17.01.2017 07:00:00 -6,6 -8,2 -1,0 0,0 0,5 3,6 18 10 33 18 NO 1030,4 10 0 0,0
17.01.2017 06:00:00 -6,5 -7,7 -1,0 0,0 0,5 3,6 23 12 36 19 NO 1029,6 7 0 0,0
17.01.2017 05:00:00 -5,9 -7,1 -1,1 0,0 0,5 3,6 14 8 31 17 NNO 1028,9 5 0 0,0
17.01.2017 04:00:00 -5,4 -6,9 -1,1 0,0 0,5 3,6 21 11 32 17 NO 1028,5 10 0 0,0
17.01.2017 03:00:00 -5,4 -6,9 -1,1 0,0 0,5 3,6 16 9 29 15 NO 1028,2 6 0 0,0
17.01.2017 02:00:00 -5,5 -6,6 -1,1 0,0 0,5 3,6 19 10 31 17 NNO 1028,0 5 0 0,0
17.01.2017 01:00:00 -5,6 -6,9 -1,0 0,0 0,5 3,6 14 8 22 12 NNO 1027,9 5 0 0,0
17.01.2017 00:00:00 -5,6 -7,2 -1,0 0,0 0,5 3,6 12 6 25 14 NNO 1027,8 5 0 0,1
16.01.2017 23:00:00 -5,8 -7,1 -1,0 0,0 0,5 3,6 11 6 22 12 NNO 1027,7 4,3 0 0,0
16.01.2017 22:00:00 -5,9 -7,3 -1,0 0,0 0,5 3,6 13 7 23 13 NNO 1027,6 6 0 0,0
16.01.2017 21:00:00 -6,0 -7,5 -0,9 0,0 0,5 3,6 11 6 22 12 NO 1027,2 7 0 0,0
16.01.2017 20:00:00 -6,0 -7,4 -0,8 0,0 0,5 3,6 9 5 15 8 NNO 1027,0 8 0 0,0
16.01.2017 19:00:00 -6,2 -8,1 -0,8 0,0 0,5 3,6 10 5 16 8 N 1026,7 7 0 0,0
16.01.2017 18:00:00 -5,7 -7,7 -0,7 0,0 0,5 3,6 9 5 22 12 N 1026,0 6 0 0,0
16.01.2017 17:00:00 -5,6 -8,1 -0,7 0,0 0,5 3,6 12 7 21 11 NNO 1025,5 21 0 0,3
16.01.2017 16:00:00 -4,9 -6,2 -0,7 0,0 0,5 3,6 11 6 18 10 NO 1024,8 3,1 0 0,2
16.01.2017 15:00:00 -4,4 -7,8 -0,7 0,0 0,5 3,7 7 4 16 9 NO 1024,3 8 10 0,0
16.01.2017 14:00:00 -3,7 -7,2 -0,8 0,0 0,4 3,7 6 3 18 10 NO 1023,7 21 7 0,0
16.01.2017 13:00:00 -4,0 -7,5 -0,9 0,0 0,4 3,7 9 5 14 7 NO 1024,0 21 48 0,0
16.01.2017 12:00:00 -4,5 -8,0 -1,1 0,0 0,4 3,7 6 3 9 5 NO 1024,3 16 2 0,0
16.01.2017 11:00:00 -6,3 -8,4 -1,2 0,0 0,4 3,7 4 2 5 3 NNO 1025,2 9 26 0,0
16.01.2017 10:00:00 -7,6 -10,1 -1,3 0,0 0,4 3,7 0 0 4 2 N 1025,3 7 36 0,0
16.01.2017 09:00:00 -7,2 -8,2 -1,4 0,0 0,4 3,7 3 2 6 4 N 1025,0 3,9 0 0,0
16.01.2017 08:00:00 -6,3 -7,3 -1,4 0,0 0,4 3,7 3 2 7 4 O 1024,2 18 0 0,0
16.01.2017 07:00:00 -9,5 -9,9 -1,4 0,0 0,4 3,7 2 1 4 2 NNW 1025,0 1,1 0 0,0
16.01.2017 06:00:00 -6,5 -7,1 -1,5 0,0 0,4 3,7 0 0 9 5 N 1023,5 7 0 0,3
16.01.2017 05:00:00 -6,1 -7,1 -1,5 0,0 0,4 3,7 3 2 6 3 NNO 1023,5 0,9 0 0,6
16.01.2017 04:00:00 -7,0 -7,7 -1,4 0,0 0,4 3,7 1 1 7 4 Z 1023,9 3,6 0 0,0
16.01.2017 03:00:00 -7,0 -7,7 -1,3 0,0 0,4 3,7 9 5 13 7 Z 1024,1 8 0 0,0
16.01.2017 02:00:00 -9,3 -9,6 -1,2 0,0 0,4 3,7 5 3 10 5 ZZW 1025,1 7 0 0,0
16.01.2017 01:00:00 -7,2 -7,8 -1,0 0,0 0,4 3,7 9 5 12 7 Z 1024,5 6 0 0,0
16.01.2017 00:00:00 -5,0 -5,9 -0,9 0,0 0,4 3,7 5 3 7 4 ZW 1024,1 14 0 0,0
15.01.2017 23:00:00 -5,2 -6,0 -0,9 0,0 0,4 3,7 3 2 8 4 ZZW 1024,5 10 0 0,0
15.01.2017 22:00:00 -4,3 -5,2 -0,8 0,0 0,4 3,7 7 4 16 9 ZW 1024,2 17 0 0,0
15.01.2017 21:00:00 -4,0 -4,8 -0,8 0,0 0,4 3,7 9 5 11 6 WZW 1023,9 20 0 0,0
15.01.2017 20:00:00 -4,7 -5,4 -0,6 0,0 0,4 3,7 3 2 7 4 ZZO 1024,2 11 0 0,0
15.01.2017 19:00:00 -6,4 -7,2 -0,5 0,0 0,4 3,7 5 3 16 8 ZW 1024,9 11 0 0,0
15.01.2017 18:00:00 -3,9 -4,9 -0,4 0,0 0,4 3,7 10 5 16 9 ZW 1023,9 12 0 0,4
15.01.2017 17:00:00 -3,7 -4,6 -0,3 0,0 0,4 3,7 17 9 31 17 WNW 1023,7 0,5 0 0,2
15.01.2017 16:00:00 -2,9 -4,3 -0,3 0,0 0,4 3,7 16 9 28 15 ZW 1023,2 8 0 0,1
15.01.2017 15:00:00 -2,9 -4,4 -0,3 0,0 0,4 3,7 20 11 29 16 WZW 1023,0 7 0 0,3
15.01.2017 14:00:00 -2,7 -4,8 -0,4 0,0 0,4 3,7 19 11 29 15 WZW 1022,8 12 0 0,0
15.01.2017 13:00:00 -3,0 -4,3 -0,5 0,0 0,4 3,7 16 9 28 15 WZW 1023,0 4,7 0 0,2
15.01.2017 12:00:00 -3,1 -4,8 -0,6 0,0 0,4 3,7 20 11 31 17 WZW 1023,2 8 0 0,3
15.01.2017 11:00:00 -3,1 -4,4 -0,7 0,0 0,4 3,7 14 8 26 14 ZW 1023,3 2,4 0 0,2
15.01.2017 10:00:00 -3,4 -4,8 -0,8 0,0 0,4 3,7 18 10 26 14 ZW 1023,0 9 0 0,2
15.01.2017 09:00:00 -3,5 -4,6 -1,0 0,0 0,4 3,7 14 8 26 14 ZW 1022,5 3,1 0 0,0
15.01.2017 08:00:00 -3,7 -4,8 -1,0 0,0 0,4 3,7 16 9 25 14 ZZW 1021,8 4,1 0 0,1
15.01.2017 07:00:00 -3,5 -4,6 -1,0 0,0 0,4 3,7 18 10 28 15 ZW 1021,3 5 0 0,0
15.01.2017 06:00:00 -3,6 -4,6 -1,1 0,0 0,4 3,7 20 11 32 17 WZW 1020,8 18 0 0,0
15.01.2017 05:00:00 -3,6 -4,9 -1,1 0,0 0,4 3,7 23 13 35 19 ZW 1020,6 25 0 0,0
15.01.2017 04:00:00 -3,6 -4,8 -1,2 0,0 0,4 3,7 18 10 27 15 WZW 1020,6 4,8 0 0,1
15.01.2017 03:00:00 -3,7 -4,6 -1,3 0,0 0,4 3,7 17 9 34 18 WZW 1020,5 0,9 0 0,1
15.01.2017 02:00:00 -3,8 -4,8 -1,4 0,0 0,4 3,7 21 11 28 15 WZW 1020,1 1,2 0 0,3
15.01.2017 01:00:00 -3,6 -5,4 -1,5 0,0 0,4 3,7 20 11 34 18 ZW 1019,9 1,8 0 0,0

tt = temperatuur
td = dauwpunt
tt 5cm = temperatuur 5cm
tt -5cm = temperatuur -5cm
tt -20cm = temperatuur -20cm
tt -100cm = temperatuur -100cm
ff = windsnelheid
fx = windstoten
dd = windrichting
ppp = luchtdruk
vv = zicht
sd = Zonneschijnduur
rr = neerslag

Weerstations in de omgeving